CZ-6A DEB, 56635

Orbit data source: Space-Track

CZ-6A DEB, 56635 is space debris in SSO originally from a launch on Fri, 11 Nov 2022 UTC launched from the Taiyaun Space Center, China (TSC). Debris objects in space refer to the collection of defunct objects orbiting the Earth. Examples of debris include non-operational satellites, rocket bodies, and fragments generated from explosions, collisions, or faulty payload assembly.

Loading next visibility...
Identifier
56635, 2022-151AFK
Orbit
SSO
Country
Flag of CNCN / PRC
Related business
Manufacturer
SAST
Mission
Spacecraft
Bus & Motor
Unknown
Mass
Unknown
Launch date (UTC)
2022-11-11 (4 years ago)
Launch vehicle
Unknown
Launch site
Taiyaun Space Center, China (TSC)
Object type
Payload
Rocket body
Debris
Shape & HBR
Unknown shape, 0.1 m
Radar Cross Section
Medium (>0.1 m² and <1 m²)

Expand to show TLE details & history
Last TLE update: 2 days ago

TLE from 2 days ago
0 CZ-6A DEB
1 56635U 22151AFK 26170.96805376  .00000475  00000-0  24055-3 0  9991
2 56635  98.7504 181.6272 0030144 340.3886  19.6129 14.20581017163389
Epoch: 2026-06-19T23:13Z
TLE epoch observation values (Epoch: 2026-06-19T23:13:59.844Z)
Latitude
-0.00005°
Longitude
-75.06157°
Altitude
805.857 km
Speed
7.461 km/s
True Right ascension
12h 06m 30s
True Declination
0° 00' 00"
Sunlit
Object was in daylight at epoch
Visualization orbit readout
Latitude
Unknown
Longitude
Unknown
Altitude
Unknown
Speed
Unknown
Apparent Right ascension
Unknown
Apparent Declination
Unknown
Sunlit
N/A
Visualization observer readout
Local Sidereal Time
21:51:22
Azimuth
Unknown
Elevation
Unknown
Doppler factor
Unknown
Orbital elements
Apogee altitude
842.248 km
Perigee altitude
798.849 km
Semi-major axis
7,198.685 km
Eccentricity
0.00301
Inclination
98.7504°
RAAN
181.6272°
Arg. of periapsis
340.3886°
True anomaly
19.72926°
Mean anomaly
19.6129°
Eccentric anomaly
19.67104°
Mean motion
3.55356 °/min
Orbital period
101.31 mins
BSTAR
0.00024055
Loading maneuver chart data...
Computing Atmospheric mass density...
Loading historical data...
Loading historical data...
Loading historical data...
Loading historical data...
Loading historical data...
Loading historical data...
Loading historical data...

Documentation

Showing up to 5 results
|